Location: Champs
(48.8539°N, 2.6040°E)
Time: 00:51:40
(UTC+00:00)

USA 308 - Pass Details

Date: 05 June 2022
Orbit: 549 x 558 km, 54.0° (Epoch: 14 June)

Event Time Altitude Azimuth Distance (km) Brightness Sun altitude
Rises 01:37:15 0° 294° (WNW) 2,739 6.4 -14.6°
Reaches altitude 10° 01:39:32 10° 299° (WNW) 1,845 5.5 -14.4°
Maximum altitude 01:43:39 54° 17° (NNE) 685 3.7 -14.1°
Drops below altitude 10° 01:47:50 10° 96° (E) 1,873 5.8 -13.8°
Sets 01:50:03 0° 101° (E) 2,740 6.6 -13.6°
